HUANJING 1B (HJ-1B)

Last updated on Sun Jul 06 2025 00:02:28 GMT+0000 (Coordinated Universal Time)

1 33321U 08041B 25186.55892967 .00000704 00000+0 93566-4 0 9991 2 33321 97.6294 185.7862 0035654 239.5184 120.2508 14.82295773907049
UTC large
Height (km)
Speed (km/s)
/
Latitude / Longitude
Inclination (degrees)
Orbital Period (minutes)
Azimuth
Elevation
Range (km)
Doppler Factor

Next 0 passes for location: London (51.5072 / 0.1276)

Sorry there are no passes over London.